Hourly Data Report for February 28, 2018

MIRAMICHI RCS
NEW BRUNSWICK

47°00'34.000" N
65°27'54.000" W
33.00 m
8100989
71744
ACQ

Download Data

Hourly Data (February 2018)
Hourly Data Report for February 28, 2018
TIME
LST
Temp Definition
°C
Dew Point Definition
°C
Rel Hum Definition
%
Precip. Amount Definition
mm

Wind Dir Definition
10's deg

Wind Spd Definition
km/h
Visibility Definition
km
Stn Press Definition
kPa
Hmdx Definition


Wind Chill Definition


Weather Definition


00:00 -5.2 -6.3 92 0.0 17 1   101.30   -6 LegendNANA
01:00 -3.7 -5.6 86 0.0   0   101.25     LegendNANA
02:00 -4.0 -5.9 87 0.0 13 2   101.17   -5 LegendNANA
03:00 -5.1 -6.6 89 0.0   0   101.12     LegendNANA
04:00 -4.4 -6.8 83 0.0 10 8   101.01   -8 LegendNANA
05:00 -4.4 -6.6 84 0.0 11 8   100.98   -8 LegendNANA
06:00 -4.3 -5.4 92 0.5 5 6   100.95   -7 LegendNANA
07:00 -4.2 -5.2 93 1.0 4 7   100.93   -7 LegendNANA
08:00 -3.7 -4.6 93 0.8 3 7   100.93   -7 LegendNANA
09:00 -2.7 -3.8 92 0.0 2 4   100.93   -4 LegendNANA
10:00 -1.3 -3.0 88 0.0 5 4   100.94   -3 LegendNANA
11:00 0.2 -2.3 83 0.0   0   100.96     LegendNANA
12:00 0.1 -2.3 84 0.0 35 5   101.02     LegendNANA
13:00 -0.1 -2.3 85 0.0 4 9   101.06   -3 LegendNANA
14:00 -0.4 -2.5 86 0.0 4 11   101.09   -4 LegendNANA
15:00 -0.7 -3.0 84 0.0 3 10   101.14   -4 LegendNANA
16:00 -1.3 -2.9 89 0.0 5 14   101.20   -6 LegendNANA
17:00 -2.2 -3.1 94 0.0 5 15   101.27   -7 LegendNANA
18:00 -2.6 -3.3 95 0.0 5 15   101.33   -8 LegendNANA
19:00 -2.9 -3.6 95 0.0 5 15   101.36   -8 LegendNANA
20:00 -2.8 -4.4 89 0.0 8 17   101.37   -8 LegendNANA
21:00 -3.0 -4.8 87 0.0 8 15   101.38   -8 LegendNANA
22:00 -3.0 -4.6 89 0.0 6 12   101.46   -7 LegendNANA
23:00 -3.1 -4.9 87 0.0 6 11   101.50   -7 LegendNANA

Notes on Data Quality.

Legend

  • E = Estimated
  • M = Missing
  • NA = Not Available*
  • [empty] = Indicates an unobserved value
Date modified: